Chicago Executive, IL

5:36 PM CST on December 16, 2017 (GMT -0600)
Chicago Executive

Weather History for KPWK - March, 2013

Change the Weather History Date:

Sunday, March 3, 2013

  Actual Average Record
Temperature  
Mean Temperature 22 °F 33 °F  
Max Temperature 32 °F 41 °F 57 °F (2008)
Min Temperature 11 °F 25 °F -4 °F (2014)
Degree Days  
Heating Degree Days 43 32  
Month to date heating degree days 122 97  
Since 1 July heating degree days 4629 4835  
Cooling Degree Days 0 0  
Month to date cooling degree days 0 0  
Year to date cooling degree days 0 0  
Moisture  
Dew Point 11 °F    
Average Humidity 64    
Maximum Humidity 84    
Minimum Humidity 37    
Precipitation  
Precipitation 0.00 in 0.07 in 0.40 in (2008)
Month to date precipitation T 0.19  
Year to date precipitation 4.96 2.77  
Sea Level Pressure  
Sea Level Pressure 30.15 in    
Wind  
Wind Speed 4 mph (NNW)    
Max Wind Speed 12 mph    
Max Gust Speed 14 mph    
Visibility 10 miles    
Events      
T = Trace of Precipitation, MM = Missing Value Source: NWS Daily Summary

Daily Weather History Graph

Daily Weather History Graph

Search for Another Location

Airport or City:

Trip Planner

Search our weather history database for the weather conditions in past years. The results will help you decide how hot, cold, wet, or windy it might be!

Date:

Astronomy

Mar. 03, 2013 Rise Set
Actual Time 6:23 AM CST 5:44 PM CST
Civil Twilight 5:55 AM CST 6:12 PM CST
Nautical Twilight 5:22 AM CST 6:44 PM CST
Astronomical Twilight 4:50 AM CST 7:17 PM CST
Moon No Moon Rise 9:31 AM CST (3/3)
Length of Visible Light 12h 17m
Length of Day
11h 21m
Waning Gibbous, 63% of the Moon is Illuminated
Mar 3
Waning Gibbous
Mar 4
Last Quarter
Mar 11
New
Mar 19
First Quarter
Mar 27
Full

Hourly Weather History & Observations

Time (CST) Temp. Windchill Dew Point Humidity Pressure Visibility Wind Dir Wind Speed Gust Speed Precip Events Conditions
12:52 AM 16.0 °F 10.4 °F 10.0 °F 77% 30.18 in 10.0 mi NW 3.5 mph - N/A   Clear
1:52 AM 14.0 °F 8.2 °F 9.0 °F 80% 30.17 in 10.0 mi NNW 3.5 mph - N/A   Clear
2:52 AM 14.0 °F 8.2 °F 9.0 °F 80% 30.16 in 10.0 mi NNW 3.5 mph - N/A   Clear
3:52 AM 14.0 °F - 9.0 °F 80% 30.15 in 10.0 mi Calm Calm - N/A   Mostly Cloudy
4:52 AM 14.0 °F - 8.1 °F 77% 30.16 in 10.0 mi Calm Calm - N/A   Clear
6:52 AM 12.9 °F - 9.0 °F 84% 30.19 in 10.0 mi Calm Calm - N/A   Clear
7:52 AM 18.0 °F 9.8 °F 9.0 °F 68% 30.19 in 10.0 mi NW 5.8 mph - N/A   Clear
8:52 AM 23.0 °F 13.1 °F 9.0 °F 55% 30.18 in 10.0 mi NW 9.2 mph - N/A   Clear
9:52 AM 25.0 °F 17.1 °F 10.0 °F 53% 30.17 in 10.0 mi NNW 6.9 mph - N/A   Clear
10:52 AM 27.0 °F 18.7 °F 10.9 °F 51% 30.17 in 10.0 mi NNW 8.1 mph - N/A   Clear
11:52 AM 28.9 °F 22.8 °F 10.0 °F 45% 30.15 in 10.0 mi NNW 5.8 mph - N/A   Clear
12:52 PM 30.0 °F 23.2 °F 9.0 °F 41% 30.13 in 10.0 mi NNW 6.9 mph - N/A   Clear
1:52 PM 32.0 °F 25.6 °F 9.0 °F 38% 30.12 in 10.0 mi NW 6.9 mph - N/A   Clear
2:52 PM 32.0 °F 24.8 °F 8.1 °F 37% 30.12 in 10.0 mi NW 8.1 mph - N/A   Clear
3:52 PM 30.9 °F 26.2 °F 9.0 °F 40% 30.12 in 10.0 mi NW 4.6 mph - N/A   Clear
4:52 PM 30.0 °F 24.1 °F 14.0 °F 51% 30.12 in 10.0 mi ENE 5.8 mph - N/A   Clear
5:52 PM 27.0 °F 19.5 °F 14.0 °F 58% 30.13 in 10.0 mi NE 6.9 mph - N/A   Clear
6:52 PM 25.0 °F - 14.0 °F 63% 30.14 in 10.0 mi Calm Calm - N/A   Clear
7:52 PM 23.0 °F - 14.0 °F 68% 30.14 in 10.0 mi Calm Calm - N/A   Clear
8:52 PM 21.0 °F - 14.0 °F 74% 30.14 in 10.0 mi Calm Calm - N/A   Clear
9:52 PM 19.9 °F - 15.1 °F 81% 30.15 in 10.0 mi Calm Calm - N/A   Clear
10:52 PM 18.0 °F - 12.9 °F 81% 30.15 in 10.0 mi Calm Calm - N/A   Clear
11:52 PM 17.1 °F - 12.9 °F 84% 30.14 in 10.0 mi Calm Calm - N/A   Clear